#datetime,building,power
2023-03-28T00:00:00,axn,27.03
2023-03-28T00:01:00,axn,26.55
2023-03-28T00:02:00,axn,27.04
2023-03-28T00:03:00,axn,27.40
2023-03-28T00:04:00,axn,27.12
2023-03-28T00:05:00,axn,30.09
2023-03-28T00:06:00,axn,27.16
2023-03-28T00:07:00,axn,26.79
2023-03-28T00:08:00,axn,26.75
2023-03-28T00:09:00,axn,26.71
2023-03-28T00:10:00,axn,26.79
2023-03-28T00:11:00,axn,26.76
2023-03-28T00:12:00,axn,26.82
2023-03-28T00:13:00,axn,26.79
2023-03-28T00:14:00,axn,26.79
2023-03-28T00:15:00,axn,26.76
2023-03-28T00:16:00,axn,26.91
2023-03-28T00:17:00,axn,26.72
2023-03-28T00:18:00,axn,29.41
2023-03-28T00:19:00,axn,29.55
2023-03-28T00:20:00,axn,29.41
2023-03-28T00:21:00,axn,26.80
2023-03-28T00:22:00,axn,26.67
2023-03-28T00:23:00,axn,26.96
2023-03-28T00:24:00,axn,26.97
2023-03-28T00:25:00,axn,26.67
2023-03-28T00:26:00,axn,26.58
2023-03-28T00:27:00,axn,26.66
2023-03-28T00:28:00,axn,26.41
2023-03-28T00:29:00,axn,26.45
2023-03-28T00:30:00,axn,26.49
2023-03-28T00:31:00,axn,26.77
2023-03-28T00:32:00,axn,26.57
2023-03-28T00:33:00,axn,26.56
2023-03-28T00:34:00,axn,26.55
2023-03-28T00:35:00,axn,26.57
2023-03-28T00:36:00,axn,26.37
2023-03-28T00:37:00,axn,28.38
2023-03-28T00:38:00,axn,27.52
2023-03-28T00:39:00,axn,26.21
2023-03-28T00:40:00,axn,26.14
2023-03-28T00:41:00,axn,26.02
2023-03-28T00:42:00,axn,26.26
2023-03-28T00:43:00,axn,26.11
2023-03-28T00:44:00,axn,26.35
2023-03-28T00:45:00,axn,26.53
2023-03-28T00:46:00,axn,26.79
2023-03-28T00:47:00,axn,26.43
2023-03-28T00:48:00,axn,26.50
2023-03-28T00:49:00,axn,26.64
2023-03-28T00:50:00,axn,26.89
2023-03-28T00:51:00,axn,26.41
2023-03-28T00:52:00,axn,26.39
2023-03-28T00:53:00,axn,26.19
2023-03-28T00:54:00,axn,26.38
2023-03-28T00:55:00,axn,26.37
2023-03-28T00:56:00,axn,26.25
2023-03-28T00:57:00,axn,25.90
2023-03-28T00:58:00,axn,25.82
2023-03-28T00:59:00,axn,26.04
2023-03-28T01:00:00,axn,26.01
2023-03-28T01:01:00,axn,26.00
2023-03-28T01:02:00,axn,26.00
2023-03-28T01:03:00,axn,25.76
2023-03-28T01:04:00,axn,36.66
2023-03-28T01:05:00,axn,36.24
2023-03-28T01:06:00,axn,36.30
2023-03-28T01:07:00,axn,36.20
2023-03-28T01:08:00,axn,25.79
2023-03-28T01:09:00,axn,25.83
2023-03-28T01:10:00,axn,26.07
2023-03-28T01:11:00,axn,26.05
2023-03-28T01:12:00,axn,26.16
2023-03-28T01:13:00,axn,25.94
2023-03-28T01:14:00,axn,26.20
2023-03-28T01:15:00,axn,26.41
2023-03-28T01:16:00,axn,26.13
2023-03-28T01:17:00,axn,26.15
2023-03-28T01:18:00,axn,26.10
2023-03-28T01:19:00,axn,26.07
2023-03-28T01:20:00,axn,25.85
2023-03-28T01:21:00,axn,25.94
2023-03-28T01:22:00,axn,25.83
2023-03-28T01:23:00,axn,25.89
2023-03-28T01:24:00,axn,25.89
2023-03-28T01:25:00,axn,26.02
2023-03-28T01:26:00,axn,25.87
2023-03-28T01:27:00,axn,25.99
2023-03-28T01:28:00,axn,26.12
2023-03-28T01:29:00,axn,26.22
2023-03-28T01:30:00,axn,26.25
2023-03-28T01:31:00,axn,26.54
2023-03-28T01:32:00,axn,26.82
2023-03-28T01:33:00,axn,26.47
2023-03-28T01:34:00,axn,26.42
2023-03-28T01:35:00,axn,26.34
2023-03-28T01:36:00,axn,26.55
2023-03-28T01:37:00,axn,26.31
2023-03-28T01:38:00,axn,26.34
2023-03-28T01:39:00,axn,26.22
2023-03-28T01:40:00,axn,26.10
2023-03-28T01:41:00,axn,26.10
2023-03-28T01:42:00,axn,26.32
2023-03-28T01:43:00,axn,26.21
2023-03-28T01:44:00,axn,26.52
2023-03-28T01:45:00,axn,25.98
2023-03-28T01:46:00,axn,25.85
2023-03-28T01:47:00,axn,25.81
2023-03-28T01:48:00,axn,25.74
2023-03-28T01:49:00,axn,26.20
2023-03-28T01:50:00,axn,25.86
2023-03-28T01:51:00,axn,25.87
2023-03-28T01:52:00,axn,25.78
2023-03-28T01:53:00,axn,25.89
2023-03-28T01:54:00,axn,25.78
2023-03-28T01:55:00,axn,25.80
2023-03-28T01:56:00,axn,25.68
2023-03-28T01:57:00,axn,26.30
2023-03-28T01:58:00,axn,25.01
2023-03-28T01:59:00,axn,25.29
2023-03-28T02:00:00,axn,30.55
2023-03-28T02:01:00,axn,30.59
2023-03-28T02:02:00,axn,30.64
2023-03-28T02:03:00,axn,25.15
2023-03-28T02:04:00,axn,24.66
2023-03-28T02:05:00,axn,24.58
2023-03-28T02:06:00,axn,24.49
2023-03-28T02:07:00,axn,24.91
2023-03-28T02:08:00,axn,24.75
2023-03-28T02:09:00,axn,24.83
2023-03-28T02:10:00,axn,24.84
2023-03-28T02:11:00,axn,24.76
2023-03-28T02:12:00,axn,24.88
2023-03-28T02:13:00,axn,24.89
2023-03-28T02:14:00,axn,24.93
2023-03-28T02:15:00,axn,24.88
2023-03-28T02:16:00,axn,25.23
2023-03-28T02:17:00,axn,24.95
2023-03-28T02:18:00,axn,24.83
2023-03-28T02:19:00,axn,24.78
2023-03-28T02:20:00,axn,24.84
2023-03-28T02:21:00,axn,24.79
2023-03-28T02:22:00,axn,29.18
2023-03-28T02:23:00,axn,29.39
2023-03-28T02:24:00,axn,29.81
2023-03-28T02:25:00,axn,24.96
2023-03-28T02:26:00,axn,25.00
2023-03-28T02:27:00,axn,25.33
2023-03-28T02:28:00,axn,25.00
2023-03-28T02:29:00,axn,24.92
2023-03-28T02:30:00,axn,24.68
2023-03-28T02:31:00,axn,24.65
2023-03-28T02:32:00,axn,24.69
2023-03-28T02:33:00,axn,24.81
2023-03-28T02:34:00,axn,24.83
2023-03-28T02:35:00,axn,24.95
2023-03-28T02:36:00,axn,25.04
2023-03-28T02:37:00,axn,25.51
2023-03-28T02:38:00,axn,25.46
2023-03-28T02:39:00,axn,25.29
2023-03-28T02:40:00,axn,25.24
2023-03-28T02:41:00,axn,25.36
2023-03-28T02:42:00,axn,27.34
2023-03-28T02:43:00,axn,27.51
2023-03-28T02:44:00,axn,27.52
2023-03-28T02:45:00,axn,27.55
2023-03-28T02:46:00,axn,27.45
2023-03-28T02:47:00,axn,27.29
2023-03-28T02:48:00,axn,27.18
2023-03-28T02:49:00,axn,27.03
2023-03-28T02:50:00,axn,27.08
2023-03-28T02:51:00,axn,26.87
2023-03-28T02:52:00,axn,27.69
2023-03-28T02:53:00,axn,27.70
2023-03-28T02:54:00,axn,27.69
2023-03-28T02:55:00,axn,27.68
2023-03-28T02:56:00,axn,27.93
2023-03-28T02:57:00,axn,28.26
2023-03-28T02:58:00,axn,29.29
2023-03-28T02:59:00,axn,29.32
2023-03-28T03:00:00,axn,29.40
2023-03-28T03:01:00,axn,29.57
2023-03-28T03:02:00,axn,29.56
2023-03-28T03:03:00,axn,29.72
2023-03-28T03:04:00,axn,29.56
2023-03-28T03:05:00,axn,29.66
2023-03-28T03:06:00,axn,29.53
2023-03-28T03:07:00,axn,29.79
2023-03-28T03:08:00,axn,29.84
2023-03-28T03:09:00,axn,29.60
2023-03-28T03:10:00,axn,29.87
2023-03-28T03:11:00,axn,32.52
2023-03-28T03:12:00,axn,32.55
2023-03-28T03:13:00,axn,29.46
2023-03-28T03:14:00,axn,29.58
2023-03-28T03:15:00,axn,29.63
2023-03-28T03:16:00,axn,29.70
2023-03-28T03:17:00,axn,29.55
2023-03-28T03:18:00,axn,32.47
2023-03-28T03:19:00,axn,32.56
2023-03-28T03:20:00,axn,32.41
2023-03-28T03:21:00,axn,29.63
2023-03-28T03:22:00,axn,29.66
2023-03-28T03:23:00,axn,29.70
2023-03-28T03:24:00,axn,29.67
2023-03-28T03:25:00,axn,29.67
2023-03-28T03:26:00,axn,29.52
2023-03-28T03:27:00,axn,29.46
2023-03-28T03:28:00,axn,29.55
2023-03-28T03:29:00,axn,29.53
2023-03-28T03:30:00,axn,29.54
2023-03-28T03:31:00,axn,29.50
2023-03-28T03:32:00,axn,29.55
2023-03-28T03:33:00,axn,29.98
2023-03-28T03:34:00,axn,29.48
2023-03-28T03:35:00,axn,29.36
2023-03-28T03:36:00,axn,29.35
2023-03-28T03:37:00,axn,29.53
2023-03-28T03:38:00,axn,29.69
2023-03-28T03:39:00,axn,29.51
2023-03-28T03:40:00,axn,29.39
2023-03-28T03:41:00,axn,29.18
2023-03-28T03:42:00,axn,29.40
2023-03-28T03:43:00,axn,29.50
2023-03-28T03:44:00,axn,29.54
2023-03-28T03:45:00,axn,29.23
2023-03-28T03:46:00,axn,29.54
2023-03-28T03:47:00,axn,29.14
2023-03-28T03:48:00,axn,29.03
2023-03-28T03:49:00,axn,28.79
2023-03-28T03:50:00,axn,29.05
2023-03-28T03:51:00,axn,28.98
2023-03-28T03:52:00,axn,28.67
2023-03-28T03:53:00,axn,28.56
2023-03-28T03:54:00,axn,28.62
2023-03-28T03:55:00,axn,28.71
2023-03-28T03:56:00,axn,28.55
2023-03-28T03:57:00,axn,28.44
2023-03-28T03:58:00,axn,28.44
2023-03-28T03:59:00,axn,28.59
2023-03-28T04:00:00,axn,28.66
2023-03-28T04:01:00,axn,28.64
2023-03-28T04:02:00,axn,28.92
2023-03-28T04:03:00,axn,29.07
2023-03-28T04:04:00,axn,28.59
2023-03-28T04:05:00,axn,27.88
2023-03-28T04:06:00,axn,28.23
2023-03-28T04:07:00,axn,28.50
2023-03-28T04:08:00,axn,28.41
2023-03-28T04:09:00,axn,28.31
2023-03-28T04:10:00,axn,28.34
2023-03-28T04:11:00,axn,28.26
2023-03-28T04:12:00,axn,28.47
2023-03-28T04:13:00,axn,28.35
2023-03-28T04:14:00,axn,28.30
2023-03-28T04:15:00,axn,28.22
2023-03-28T04:16:00,axn,28.22
2023-03-28T04:17:00,axn,28.31
2023-03-28T04:18:00,axn,28.15
2023-03-28T04:19:00,axn,27.53
2023-03-28T04:20:00,axn,27.79
2023-03-28T04:21:00,axn,27.69
2023-03-28T04:22:00,axn,27.42
2023-03-28T04:23:00,axn,27.35
2023-03-28T04:24:00,axn,27.62
2023-03-28T04:25:00,axn,27.49
2023-03-28T04:26:00,axn,27.36
2023-03-28T04:27:00,axn,28.04
2023-03-28T04:28:00,axn,27.63
2023-03-28T04:29:00,axn,27.65
2023-03-28T04:30:00,axn,27.59
2023-03-28T04:31:00,axn,27.72
2023-03-28T04:32:00,axn,27.49
2023-03-28T04:33:00,axn,27.04
2023-03-28T04:34:00,axn,27.06
2023-03-28T04:35:00,axn,27.10
2023-03-28T04:36:00,axn,27.09
2023-03-28T04:37:00,axn,27.02
2023-03-28T04:38:00,axn,26.99
2023-03-28T04:39:00,axn,27.27
2023-03-28T04:40:00,axn,27.19
2023-03-28T04:41:00,axn,27.08
2023-03-28T04:42:00,axn,26.97
2023-03-28T04:43:00,axn,27.45
2023-03-28T04:44:00,axn,26.83
2023-03-28T04:45:00,axn,26.88
2023-03-28T04:46:00,axn,26.77
2023-03-28T04:47:00,axn,26.79
2023-03-28T04:48:00,axn,26.93
2023-03-28T04:49:00,axn,27.32
2023-03-28T04:50:00,axn,26.73
2023-03-28T04:51:00,axn,26.14
2023-03-28T04:52:00,axn,26.33
2023-03-28T04:53:00,axn,26.16
2023-03-28T04:54:00,axn,40.94
2023-03-28T04:55:00,axn,26.63
2023-03-28T04:56:00,axn,38.36
2023-03-28T04:57:00,axn,38.39
2023-03-28T04:58:00,axn,38.21
2023-03-28T04:59:00,axn,38.70
2023-03-28T05:00:00,axn,38.66
2023-03-28T05:01:00,axn,26.26
2023-03-28T05:02:00,axn,27.95
2023-03-28T05:03:00,axn,28.01
2023-03-28T05:04:00,axn,28.28
2023-03-28T05:05:00,axn,28.27
2023-03-28T05:06:00,axn,27.99
2023-03-28T05:07:00,axn,28.40
2023-03-28T05:08:00,axn,28.53
2023-03-28T05:09:00,axn,28.53
2023-03-28T05:10:00,axn,28.37
2023-03-28T05:11:00,axn,28.32
2023-03-28T05:12:00,axn,28.06
2023-03-28T05:13:00,axn,28.71
2023-03-28T05:14:00,axn,28.22
2023-03-28T05:15:00,axn,28.51
2023-03-28T05:16:00,axn,28.07
2023-03-28T05:17:00,axn,27.75
2023-03-28T05:18:00,axn,27.87
2023-03-28T05:19:00,axn,27.98
2023-03-28T05:20:00,axn,27.98
2023-03-28T05:21:00,axn,27.99
2023-03-28T05:22:00,axn,27.73
2023-03-28T05:23:00,axn,27.47
2023-03-28T05:24:00,axn,27.48
2023-03-28T05:25:00,axn,27.35
2023-03-28T05:26:00,axn,27.43
2023-03-28T05:27:00,axn,27.32
2023-03-28T05:28:00,axn,27.67
2023-03-28T05:29:00,axn,27.53
2023-03-28T05:30:00,axn,27.30
2023-03-28T05:31:00,axn,29.98
2023-03-28T05:32:00,axn,30.06
2023-03-28T05:33:00,axn,29.86
2023-03-28T05:34:00,axn,29.82
2023-03-28T05:35:00,axn,29.84
2023-03-28T05:36:00,axn,30.32
2023-03-28T05:37:00,axn,29.61
2023-03-28T05:38:00,axn,30.09
2023-03-28T05:39:00,axn,30.00
2023-03-28T05:40:00,axn,30.33
2023-03-28T05:41:00,axn,30.10
2023-03-28T05:42:00,axn,29.99
2023-03-28T05:43:00,axn,29.90
2023-03-28T05:44:00,axn,30.99
2023-03-28T05:45:00,axn,30.31
2023-03-28T05:46:00,axn,30.18
2023-03-28T05:47:00,axn,30.00
2023-03-28T05:48:00,axn,30.21
2023-03-28T05:49:00,axn,30.10
2023-03-28T05:50:00,axn,30.24
2023-03-28T05:51:00,axn,30.55
2023-03-28T05:52:00,axn,30.93
2023-03-28T05:53:00,axn,30.37
2023-03-28T05:54:00,axn,30.84
2023-03-28T05:55:00,axn,30.37
2023-03-28T05:56:00,axn,30.68
2023-03-28T05:57:00,axn,30.14
2023-03-28T05:58:00,axn,30.10
2023-03-28T05:59:00,axn,30.50
2023-03-28T06:00:00,axn,30.14
2023-03-28T06:01:00,axn,30.27
2023-03-28T06:02:00,axn,30.04
2023-03-28T06:03:00,axn,30.56
2023-03-28T06:04:00,axn,30.11
2023-03-28T06:05:00,axn,30.65
2023-03-28T06:06:00,axn,30.29
2023-03-28T06:07:00,axn,30.36
2023-03-28T06:08:00,axn,30.61
2023-03-28T06:09:00,axn,30.19
2023-03-28T06:10:00,axn,30.03
2023-03-28T06:11:00,axn,51.41
2023-03-28T06:12:00,axn,29.96
2023-03-28T06:13:00,axn,29.70
2023-03-28T06:14:00,axn,29.75
2023-03-28T06:15:00,axn,30.05
2023-03-28T06:16:00,axn,30.77
2023-03-28T06:17:00,axn,29.92
2023-03-28T06:18:00,axn,30.17
2023-03-28T06:19:00,axn,29.81
2023-03-28T06:20:00,axn,30.03
2023-03-28T06:21:00,axn,30.06
2023-03-28T06:22:00,axn,29.63
2023-03-28T06:23:00,axn,29.64
2023-03-28T06:24:00,axn,29.57
2023-03-28T06:25:00,axn,32.35
2023-03-28T06:26:00,axn,32.81
2023-03-28T06:27:00,axn,32.09
2023-03-28T06:28:00,axn,29.04
2023-03-28T06:29:00,axn,29.08
2023-03-28T06:30:00,axn,29.20
2023-03-28T06:31:00,axn,29.22
2023-03-28T06:32:00,axn,29.04
2023-03-28T06:33:00,axn,29.15
2023-03-28T06:34:00,axn,29.21
2023-03-28T06:35:00,axn,29.25
2023-03-28T06:36:00,axn,29.07
2023-03-28T06:37:00,axn,29.07
2023-03-28T06:38:00,axn,29.25
2023-03-28T06:39:00,axn,28.82
2023-03-28T06:40:00,axn,28.90
2023-03-28T06:41:00,axn,29.43
2023-03-28T06:42:00,axn,29.27
2023-03-28T06:43:00,axn,29.21
2023-03-28T06:44:00,axn,28.98
2023-03-28T06:45:00,axn,29.33
2023-03-28T06:46:00,axn,40.06
2023-03-28T06:47:00,axn,39.99
2023-03-28T06:48:00,axn,40.07
2023-03-28T06:49:00,axn,42.83
2023-03-28T06:50:00,axn,40.19
2023-03-28T06:51:00,axn,30.48
2023-03-28T06:52:00,axn,29.83
2023-03-28T06:53:00,axn,29.60
2023-03-28T06:54:00,axn,29.63
2023-03-28T06:55:00,axn,30.10
2023-03-28T06:56:00,axn,29.50
2023-03-28T06:57:00,axn,29.54
2023-03-28T06:58:00,axn,29.57
2023-03-28T06:59:00,axn,29.45
2023-03-28T07:00:00,axn,29.25
2023-03-28T07:01:00,axn,29.86
2023-03-28T07:02:00,axn,30.92
2023-03-28T07:03:00,axn,32.63
2023-03-28T07:04:00,axn,30.38
2023-03-28T07:05:00,axn,31.09
2023-03-28T07:06:00,axn,31.13
2023-03-28T07:07:00,axn,31.17
2023-03-28T07:08:00,axn,31.13
2023-03-28T07:09:00,axn,31.21
2023-03-28T07:10:00,axn,31.00
2023-03-28T07:11:00,axn,31.27
2023-03-28T07:12:00,axn,31.34
2023-03-28T07:13:00,axn,31.39
2023-03-28T07:14:00,axn,30.92
2023-03-28T07:15:00,axn,31.05
2023-03-28T07:16:00,axn,30.85
2023-03-28T07:17:00,axn,31.10
2023-03-28T07:18:00,axn,31.01
2023-03-28T07:19:00,axn,31.03
2023-03-28T07:20:00,axn,31.04
2023-03-28T07:21:00,axn,36.82
2023-03-28T07:22:00,axn,36.88
2023-03-28T07:23:00,axn,36.69
2023-03-28T07:24:00,axn,30.60
2023-03-28T07:25:00,axn,30.47
2023-03-28T07:26:00,axn,30.78
2023-03-28T07:27:00,axn,30.76
2023-03-28T07:28:00,axn,30.71
2023-03-28T07:29:00,axn,30.74
2023-03-28T07:30:00,axn,30.73
2023-03-28T07:31:00,axn,31.06
2023-03-28T07:32:00,axn,31.90
2023-03-28T07:33:00,axn,32.36
2023-03-28T07:34:00,axn,32.33
2023-03-28T07:35:00,axn,31.67
2023-03-28T07:36:00,axn,31.90
2023-03-28T07:37:00,axn,32.06
2023-03-28T07:38:00,axn,31.62
2023-03-28T07:39:00,axn,31.39
2023-03-28T07:40:00,axn,31.18
2023-03-28T07:41:00,axn,31.36
2023-03-28T07:42:00,axn,31.31
2023-03-28T07:43:00,axn,31.07
2023-03-28T07:44:00,axn,31.03
2023-03-28T07:45:00,axn,31.09
2023-03-28T07:46:00,axn,31.21
2023-03-28T07:47:00,axn,31.50
2023-03-28T07:48:00,axn,31.36
2023-03-28T07:49:00,axn,31.45
2023-03-28T07:50:00,axn,34.78
2023-03-28T07:51:00,axn,35.52
2023-03-28T07:52:00,axn,35.07
2023-03-28T07:53:00,axn,35.17
2023-03-28T07:54:00,axn,35.08
2023-03-28T07:55:00,axn,35.12
2023-03-28T07:56:00,axn,35.13
2023-03-28T07:57:00,axn,35.26
2023-03-28T07:58:00,axn,35.35
2023-03-28T07:59:00,axn,35.54
2023-03-28T08:00:00,axn,35.74
2023-03-28T08:01:00,axn,35.93
2023-03-28T08:02:00,axn,36.35
2023-03-28T08:03:00,axn,36.06
2023-03-28T08:04:00,axn,36.48
2023-03-28T08:05:00,axn,36.90
2023-03-28T08:06:00,axn,36.64
2023-03-28T08:07:00,axn,37.09
2023-03-28T08:08:00,axn,36.97
2023-03-28T08:09:00,axn,37.53
2023-03-28T08:10:00,axn,38.05
2023-03-28T08:11:00,axn,37.59
2023-03-28T08:12:00,axn,37.37
2023-03-28T08:13:00,axn,37.26
2023-03-28T08:14:00,axn,37.60
2023-03-28T08:15:00,axn,37.14
2023-03-28T08:16:00,axn,36.80
2023-03-28T08:17:00,axn,36.88
2023-03-28T08:18:00,axn,37.03
2023-03-28T08:19:00,axn,37.28
2023-03-28T08:20:00,axn,37.10
2023-03-28T08:21:00,axn,36.84
2023-03-28T08:22:00,axn,37.14
2023-03-28T08:23:00,axn,36.83
2023-03-28T08:24:00,axn,37.40
2023-03-28T08:25:00,axn,37.48
2023-03-28T08:26:00,axn,37.81
2023-03-28T08:27:00,axn,37.23
2023-03-28T08:28:00,axn,36.99
2023-03-28T08:29:00,axn,37.43
2023-03-28T08:30:00,axn,37.93
2023-03-28T08:31:00,axn,37.75
2023-03-28T08:32:00,axn,37.31
2023-03-28T08:33:00,axn,38.40
2023-03-28T08:34:00,axn,37.59
2023-03-28T08:35:00,axn,37.96
2023-03-28T08:36:00,axn,38.08
2023-03-28T08:37:00,axn,37.83
2023-03-28T08:38:00,axn,52.36
2023-03-28T08:39:00,axn,52.55
2023-03-28T08:40:00,axn,52.26
2023-03-28T08:41:00,axn,52.21
2023-03-28T08:42:00,axn,52.44
2023-03-28T08:43:00,axn,51.94
2023-03-28T08:44:00,axn,38.25
2023-03-28T08:45:00,axn,38.23
2023-03-28T08:46:00,axn,38.21
2023-03-28T08:47:00,axn,38.02
2023-03-28T08:48:00,axn,38.11
2023-03-28T08:49:00,axn,38.30
2023-03-28T08:50:00,axn,38.03
2023-03-28T08:51:00,axn,38.09
2023-03-28T08:52:00,axn,39.01
2023-03-28T08:53:00,axn,38.42
2023-03-28T08:54:00,axn,38.51
2023-03-28T08:55:00,axn,38.43
2023-03-28T08:56:00,axn,39.03
2023-03-28T08:57:00,axn,38.42
2023-03-28T08:58:00,axn,38.62
2023-03-28T08:59:00,axn,38.57
2023-03-28T09:00:00,axn,38.61
2023-03-28T09:01:00,axn,38.55
2023-03-28T09:02:00,axn,43.63
2023-03-28T09:03:00,axn,43.19
2023-03-28T09:04:00,axn,43.09
2023-03-28T09:05:00,axn,43.91
2023-03-28T09:06:00,axn,38.86
2023-03-28T09:07:00,axn,38.80
2023-03-28T09:08:00,axn,38.90
2023-03-28T09:09:00,axn,38.72
2023-03-28T09:10:00,axn,38.85
2023-03-28T09:11:00,axn,39.40
2023-03-28T09:12:00,axn,38.84
2023-03-28T09:13:00,axn,38.76
2023-03-28T09:14:00,axn,38.69
2023-03-28T09:15:00,axn,38.50
2023-03-28T09:16:00,axn,38.51
2023-03-28T09:17:00,axn,39.08
2023-03-28T09:18:00,axn,38.64
2023-03-28T09:19:00,axn,38.57
2023-03-28T09:20:00,axn,38.70
2023-03-28T09:21:00,axn,41.60
2023-03-28T09:22:00,axn,41.28
2023-03-28T09:23:00,axn,41.43
2023-03-28T09:24:00,axn,38.71
2023-03-28T09:25:00,axn,38.52
2023-03-28T09:26:00,axn,38.35
2023-03-28T09:27:00,axn,39.28
2023-03-28T09:28:00,axn,39.30
2023-03-28T09:29:00,axn,38.97
2023-03-28T09:30:00,axn,39.08
2023-03-28T09:31:00,axn,38.74
2023-03-28T09:32:00,axn,52.66
2023-03-28T09:33:00,axn,38.69
2023-03-28T09:34:00,axn,38.63
2023-03-28T09:35:00,axn,38.66
2023-03-28T09:36:00,axn,38.56
2023-03-28T09:37:00,axn,40.66
2023-03-28T09:38:00,axn,40.83
2023-03-28T09:39:00,axn,40.94
2023-03-28T09:40:00,axn,41.36
2023-03-28T09:41:00,axn,40.89
2023-03-28T09:42:00,axn,43.56
2023-03-28T09:43:00,axn,43.48
2023-03-28T09:44:00,axn,41.23
2023-03-28T09:45:00,axn,41.60
2023-03-28T09:46:00,axn,41.90
2023-03-28T09:47:00,axn,42.39
2023-03-28T09:48:00,axn,42.80
2023-03-28T09:49:00,axn,43.52
2023-03-28T09:50:00,axn,43.35
2023-03-28T09:51:00,axn,43.45
2023-03-28T09:52:00,axn,43.48
2023-03-28T09:53:00,axn,42.98
2023-03-28T09:54:00,axn,43.29
2023-03-28T09:55:00,axn,43.40
2023-03-28T09:56:00,axn,43.92
2023-03-28T09:57:00,axn,43.71
2023-03-28T09:58:00,axn,43.49
2023-03-28T09:59:00,axn,43.69
2023-03-28T10:00:00,axn,43.63
2023-03-28T10:01:00,axn,43.78
2023-03-28T10:02:00,axn,44.28
2023-03-28T10:03:00,axn,44.08
2023-03-28T10:04:00,axn,60.78
2023-03-28T10:05:00,axn,43.37
2023-03-28T10:06:00,axn,43.78
2023-03-28T10:07:00,axn,43.23
2023-03-28T10:08:00,axn,42.81
2023-03-28T10:09:00,axn,43.24
2023-03-28T10:10:00,axn,45.43
2023-03-28T10:11:00,axn,45.52
2023-03-28T10:12:00,axn,45.81
2023-03-28T10:13:00,axn,42.79
2023-03-28T10:14:00,axn,43.37
2023-03-28T10:15:00,axn,43.84
2023-03-28T10:16:00,axn,47.76
2023-03-28T10:17:00,axn,43.00
2023-03-28T10:18:00,axn,43.68
2023-03-28T10:19:00,axn,42.91
2023-03-28T10:20:00,axn,42.77
2023-03-28T10:21:00,axn,43.08
2023-03-28T10:22:00,axn,43.58
2023-03-28T10:23:00,axn,43.37
2023-03-28T10:24:00,axn,43.39
2023-03-28T10:25:00,axn,43.21
2023-03-28T10:26:00,axn,43.18
2023-03-28T10:27:00,axn,43.63
2023-03-28T10:28:00,axn,43.95
2023-03-28T10:29:00,axn,44.07
2023-03-28T10:30:00,axn,60.03
2023-03-28T10:31:00,axn,45.24
2023-03-28T10:32:00,axn,44.85
2023-03-28T10:33:00,axn,44.78
2023-03-28T10:34:00,axn,44.57
2023-03-28T10:35:00,axn,44.90
2023-03-28T10:36:00,axn,44.97
2023-03-28T10:37:00,axn,44.66
2023-03-28T10:38:00,axn,44.70
2023-03-28T10:39:00,axn,44.90
2023-03-28T10:40:00,axn,44.87
2023-03-28T10:41:00,axn,44.69
2023-03-28T10:42:00,axn,45.78
2023-03-28T10:43:00,axn,44.73
2023-03-28T10:44:00,axn,44.60
2023-03-28T10:45:00,axn,44.48
2023-03-28T10:46:00,axn,44.57
2023-03-28T10:47:00,axn,45.25
2023-03-28T10:48:00,axn,45.15
2023-03-28T10:49:00,axn,44.66
2023-03-28T10:50:00,axn,44.65
2023-03-28T10:51:00,axn,47.54
2023-03-28T10:52:00,axn,47.37
2023-03-28T10:53:00,axn,47.13
2023-03-28T10:54:00,axn,47.39
2023-03-28T10:55:00,axn,45.27
2023-03-28T10:56:00,axn,44.47
2023-03-28T10:57:00,axn,45.00
2023-03-28T10:58:00,axn,44.68
2023-03-28T10:59:00,axn,44.83
2023-03-28T11:00:00,axn,45.87
2023-03-28T11:01:00,axn,45.77
2023-03-28T11:02:00,axn,45.99
2023-03-28T11:03:00,axn,46.37
2023-03-28T11:04:00,axn,46.48
2023-03-28T11:05:00,axn,45.47
2023-03-28T11:06:00,axn,44.84
2023-03-28T11:07:00,axn,45.12
2023-03-28T11:08:00,axn,45.21
2023-03-28T11:09:00,axn,44.69
2023-03-28T11:10:00,axn,55.27
2023-03-28T11:11:00,axn,55.22
2023-03-28T11:12:00,axn,54.88
2023-03-28T11:13:00,axn,57.60
2023-03-28T11:14:00,axn,47.47
2023-03-28T11:15:00,axn,44.63
2023-03-28T11:16:00,axn,45.72
2023-03-28T11:17:00,axn,44.89
2023-03-28T11:18:00,axn,45.39
2023-03-28T11:19:00,axn,45.63
2023-03-28T11:20:00,axn,45.65
2023-03-28T11:21:00,axn,45.72
2023-03-28T11:22:00,axn,45.58
2023-03-28T11:23:00,axn,45.55
2023-03-28T11:24:00,axn,45.80
2023-03-28T11:25:00,axn,48.27
2023-03-28T11:26:00,axn,47.91
2023-03-28T11:27:00,axn,47.97
2023-03-28T11:28:00,axn,62.27
2023-03-28T11:29:00,axn,59.13
2023-03-28T11:30:00,axn,59.26
2023-03-28T11:31:00,axn,45.46
2023-03-28T11:32:00,axn,59.52
2023-03-28T11:33:00,axn,59.32
2023-03-28T11:34:00,axn,59.16
2023-03-28T11:35:00,axn,45.48
2023-03-28T11:36:00,axn,45.38
2023-03-28T11:37:00,axn,45.48
2023-03-28T11:38:00,axn,45.42
2023-03-28T11:39:00,axn,45.67
2023-03-28T11:40:00,axn,45.65
2023-03-28T11:41:00,axn,46.40
2023-03-28T11:42:00,axn,45.46
2023-03-28T11:43:00,axn,44.56
2023-03-28T11:44:00,axn,45.51
2023-03-28T11:45:00,axn,44.65
2023-03-28T11:46:00,axn,44.68
2023-03-28T11:47:00,axn,44.61
2023-03-28T11:48:00,axn,44.59
2023-03-28T11:49:00,axn,44.35
2023-03-28T11:50:00,axn,44.65
2023-03-28T11:51:00,axn,44.97
2023-03-28T11:52:00,axn,45.52
2023-03-28T11:53:00,axn,45.26
2023-03-28T11:54:00,axn,44.93
2023-03-28T11:55:00,axn,44.87
2023-03-28T11:56:00,axn,44.38
2023-03-28T11:57:00,axn,44.36
2023-03-28T11:58:00,axn,44.39
2023-03-28T11:59:00,axn,44.57
2023-03-28T12:00:00,axn,44.38
2023-03-28T12:01:00,axn,44.67
2023-03-28T12:02:00,axn,44.54
2023-03-28T12:03:00,axn,44.75
2023-03-28T12:04:00,axn,44.89
2023-03-28T12:05:00,axn,44.97
2023-03-28T12:06:00,axn,44.60
2023-03-28T12:07:00,axn,44.28
2023-03-28T12:08:00,axn,44.56
2023-03-28T12:09:00,axn,44.74
2023-03-28T12:10:00,axn,44.70
2023-03-28T12:11:00,axn,44.34
2023-03-28T12:12:00,axn,44.72
2023-03-28T12:13:00,axn,44.57
2023-03-28T12:14:00,axn,44.38
2023-03-28T12:15:00,axn,47.65
2023-03-28T12:16:00,axn,47.67
2023-03-28T12:17:00,axn,47.73
2023-03-28T12:18:00,axn,45.58
2023-03-28T12:19:00,axn,44.80
2023-03-28T12:20:00,axn,44.96
2023-03-28T12:21:00,axn,44.92
2023-03-28T12:22:00,axn,44.87
2023-03-28T12:23:00,axn,44.99
2023-03-28T12:24:00,axn,45.28
2023-03-28T12:25:00,axn,44.38
2023-03-28T12:26:00,axn,44.53
2023-03-28T12:27:00,axn,45.19
2023-03-28T12:28:00,axn,46.13
2023-03-28T12:29:00,axn,46.25
2023-03-28T12:30:00,axn,45.79
2023-03-28T12:31:00,axn,45.25
2023-03-28T12:32:00,axn,46.94
2023-03-28T12:33:00,axn,44.03
2023-03-28T12:34:00,axn,44.17
2023-03-28T12:35:00,axn,44.02
2023-03-28T12:36:00,axn,44.58
2023-03-28T12:37:00,axn,44.59
2023-03-28T12:38:00,axn,44.70
2023-03-28T12:39:00,axn,44.73
2023-03-28T12:40:00,axn,44.83
2023-03-28T12:41:00,axn,44.33
2023-03-28T12:42:00,axn,44.53
2023-03-28T12:43:00,axn,44.57
2023-03-28T12:44:00,axn,44.30
2023-03-28T12:45:00,axn,47.69
2023-03-28T12:46:00,axn,47.15
2023-03-28T12:47:00,axn,47.54
2023-03-28T12:48:00,axn,47.27
2023-03-28T12:49:00,axn,46.65
2023-03-28T12:50:00,axn,44.00
2023-03-28T12:51:00,axn,44.44
2023-03-28T12:52:00,axn,44.77
2023-03-28T12:53:00,axn,45.58
2023-03-28T12:54:00,axn,44.74
2023-03-28T12:55:00,axn,44.43
2023-03-28T12:56:00,axn,44.49
2023-03-28T12:57:00,axn,43.71
2023-03-28T12:58:00,axn,44.24
2023-03-28T12:59:00,axn,43.74
2023-03-28T13:00:00,axn,43.83
2023-03-28T13:01:00,axn,44.15
2023-03-28T13:02:00,axn,44.61
2023-03-28T13:03:00,axn,44.73
2023-03-28T13:04:00,axn,44.91
2023-03-28T13:05:00,axn,44.07
2023-03-28T13:06:00,axn,43.82
2023-03-28T13:07:00,axn,43.79
2023-03-28T13:08:00,axn,44.50
2023-03-28T13:09:00,axn,43.96
2023-03-28T13:10:00,axn,44.79
2023-03-28T13:11:00,axn,44.27
2023-03-28T13:12:00,axn,44.82
2023-03-28T13:13:00,axn,44.09
2023-03-28T13:14:00,axn,44.57
2023-03-28T13:15:00,axn,44.05
2023-03-28T13:16:00,axn,44.22
2023-03-28T13:17:00,axn,44.24
2023-03-28T13:18:00,axn,44.28